This is the latest recevied weather packets stored in our database for station/object K5BOU. If no packets are shown the sender has not sent any weather packets the latest 10 day(s).
| Time | Temp. | Humidity | Pressure | Rain* | Wind** | Luminosity | Snow |
|---|---|---|---|---|---|---|---|
| 1777821350 | 23.33° C | 60% | 1020.9 hPa | 0 mm | - | 699 W/m² | - |
| 1777821046 | 23.33° C | 61% | 1020.7 hPa | 0 mm | - | 672 W/m² | - |
| 1777820743 | 23.33° C | 62% | 1020.7 hPa | 0 mm | - | 655 W/m² | - |
| 1777820439 | 23.33° C | 63% | 1020.8 hPa | 0 mm | - | 629 W/m² | - |
| 1777820137 | 22.78° C | 64% | 1020.8 hPa | 0 mm | - | 613 W/m² | - |
| 1777819833 | 22.78° C | 64% | 1020.8 hPa | 0 mm | - | 618 W/m² | - |
| 1777819531 | 22.78° C | 68% | 1020.6 hPa | 0 mm | - | 560 W/m² | - |
| 1777819229 | 22.22° C | 69% | 1020.6 hPa | 0 mm | - | 575 W/m² | - |
| 1777818925 | 22.22° C | 71% | 1020.4 hPa | 0 mm | - | 560 W/m² | - |
| 1777818621 | 22.22° C | 70% | 1020.7 hPa | 0 mm | - | 512 W/m² | - |
| 1777818319 | 21.67° C | 72% | 1020.6 hPa | 0 mm | - | 475 W/m² | - |
| 1777818015 | 21.11° C | 74% | 1020.7 hPa | 0 mm | - | 417 W/m² | - |
| 1777817712 | 20.56° C | 75% | 1020.7 hPa | 0 mm | - | 395 W/m² | - |
| 1777817409 | 20° C | 79% | 1020.6 hPa | 0 mm | - | 365 W/m² | - |
| 1777817106 | 18.89° C | 82% | 1020.5 hPa | 0 mm | - | 343 W/m² | - |
| 1777816803 | 18.33° C | 88% | 1020.5 hPa | 0 mm | - | 311 W/m² | - |
| 1777816500 | 17.78° C | 96% | 1020.4 hPa | 0 mm | - | 291 W/m² | - |
| 1777816197 | 17.78° C | 99% | 1020.4 hPa | 0 mm | - | 281 W/m² | - |
| 1777815895 | 16.67° C | 99% | 1020.5 hPa | 0 mm | - | 272 W/m² | - |
| 1777815592 | 16.11° C | 99% | 1020.4 hPa | 0 mm | - | 246 W/m² | - |
| 1777815290 | 16.11° C | 99% | 1020.3 hPa | 0 mm | - | 227 W/m² | - |
| 1777814985 | 16.11° C | 99% | 1020.2 hPa | 0 mm | - | 191 W/m² | - |
| 1777814682 | 16.11° C | 99% | 1020.3 hPa | 0 mm | - | 188 W/m² | - |
| 1777814379 | 16.11° C | 99% | 1020.4 hPa | 0 mm | - | 181 W/m² | - |
| 1777814076 | 16.11° C | 99% | 1020.2 hPa | 0 mm | - | 162 W/m² | - |
* Rain latest hour (hover to see other rain measurements)
** Current wind speed in m/s (hover to see current wind gust speed)